�������r�C�����j�^�v���󋵏��
Date,Time,5�C6���@���p�r�C��,����,����(m/s)
2024/03/11,00:00,3.9,���k��,5.0
2024/03/11,00:10,3.9,���k��,5.4
2024/03/11,00:20,3.7,��,5.5
2024/03/11,00:30,3.8,���k��,6.0
2024/03/11,00:40,3.9,���k��,6.5
2024/03/11,00:50,3.7,���k��,6.9
2024/03/11,01:00,3.8,�k��,5.3
2024/03/11,01:10,3.7,���k��,5.6
2024/03/11,01:20,3.9,��,5.1
2024/03/11,01:30,3.8,��,5.4
2024/03/11,01:40,3.6,���k��,5.4
2024/03/11,01:50,3.9,���k��,4.6
2024/03/11,02:00,4.0,��,6.7
2024/03/11,02:10,3.8,���k��,5.3
2024/03/11,02:20,3.7,��,5.6
2024/03/11,02:30,3.7,��,6.0
2024/03/11,02:40,3.8,��,6.4
2024/03/11,02:50,3.7,��,5.6
2024/03/11,03:00,3.8,���k��,4.4
2024/03/11,03:10,3.8,���k��,4.1
2024/03/11,03:20,3.8,���k��,4.0
2024/03/11,03:30,3.8,���k��,3.8
2024/03/11,03:40,3.8,��,4.2
2024/03/11,03:50,3.9,��,4.3
2024/03/11,04:00,3.8,���k��,4.6
2024/03/11,04:10,3.8,���k��,4.1
2024/03/11,04:20,3.8,��,4.1
2024/03/11,04:30,3.8,��,2.3
2024/03/11,04:40,3.9,���k��,2.2
2024/03/11,04:50,3.8,��,2.3
2024/03/11,05:00,3.8,��,2.5
2024/03/11,05:10,3.8,��,2.0
2024/03/11,05:20,3.7,��,1.1
2024/03/11,05:30,3.8,��,1.7
2024/03/11,05:40,3.9,���쐼,2.8
2024/03/11,05:50,3.8,��,2.6
2024/03/11,06:00,3.8,���k��,2.2
2024/03/11,06:10,3.8,���k��,2.8
2024/03/11,06:20,3.8,���k��,3.1
2024/03/11,06:30,3.9,���k��,2.9
2024/03/11,06:40,3.8,��,3.1
2024/03/11,06:50,3.9,��,2.3
2024/03/11,07:00,3.8,��,2.3
2024/03/11,07:10,3.7,��,2.0
2024/03/11,07:20,3.8,��,1.5
2024/03/11,07:30,3.8,��,2.3
2024/03/11,07:40,3.9,���쐼,2.2
2024/03/11,07:50,3.8,��,3.3
2024/03/11,08:00,3.6,��,3.2
2024/03/11,08:10,3.8,���k��,2.8
2024/03/11,08:20,3.8,��,2.6
2024/03/11,08:30,3.8,���쐼,2.6
2024/03/11,08:40,3.9,��,3.3
2024/03/11,08:50,3.7,��,4.2
2024/03/11,09:00,3.8,��,4.3
2024/03/11,09:10,3.8,���쐼,3.4
2024/03/11,09:20,3.6,���쐼,4.6
2024/03/11,09:30,3.9,���쐼,5.2
2024/03/11,09:40,3.7,��,4.9
2024/03/11,09:50,3.9,���쐼,3.7
2024/03/11,10:00,3.9,��,4.3
2024/03/11,10:10,3.8,��,3.3
2024/03/11,10:20,3.9,���쐼,5.0
2024/03/11,10:30,3.8,���쐼,4.1
2024/03/11,10:40,3.9,���k��,4.4
2024/03/11,10:50,3.7,�k��,4.1
2024/03/11,11:00,3.9,���k��,5.5
2024/03/11,11:10,3.8,��,3.6
2024/03/11,11:20,3.9,�쐼,6.5
2024/03/11,11:30,3.9,��,6.3
2024/03/11,11:40,4.0,���쐼,5.0
2024/03/11,11:50,3.9,��,4.3
2024/03/11,12:00,3.8,��쐼,2.0
2024/03/11,12:10,3.7,��쓌,5.6
2024/03/11,12:20,3.7,��쓌,5.5
2024/03/11,12:30,4.0,��쓌,6.0
2024/03/11,12:40,4.0,��쓌,4.7
2024/03/11,12:50,3.9,��쓌,6.0
2024/03/11,13:00,3.7,��쓌,5.4
2024/03/11,13:10,3.8,��쓌,6.8
2024/03/11,13:20,4.0,��쓌,7.6
2024/03/11,13:30,3.6,��쓌,7.4
2024/03/11,13:40,3.8,��쓌,7.2
2024/03/11,13:50,4.0,��쓌,7.6
2024/03/11,14:00,3.8,��쓌,7.4
2024/03/11,14:10,3.9,��쓌,8.2
2024/03/11,14:20,3.7,��쓌,8.6
2024/03/11,14:30,3.8,��쓌,9.2
2024/03/11,14:40,3.9,��쓌,9.5
2024/03/11,14:50,4.0,��쓌,8.5
2024/03/11,15:00,3.8,��,7.0
2024/03/11,15:10,3.8,��,8.1
2024/03/11,15:20,3.8,��쓌,8.0
2024/03/11,15:30,3.8,��쓌,10.5
2024/03/11,15:40,3.8,��쓌,9.7
2024/03/11,15:50,3.8,��,9.6
2024/03/11,16:00,4.0,��,9.0
2024/03/11,16:10,3.9,��쓌,9.7
2024/03/11,16:20,3.7,��,8.2
2024/03/11,16:30,4.1,��쓌,11.0
2024/03/11,16:40,3.9,��,10.0
2024/03/11,16:50,3.9,��,8.6
2024/03/11,17:00,3.7,��,8.9
2024/03/11,17:10,3.9,��,9.3
2024/03/11,17:20,3.7,��,9.3
2024/03/11,17:30,3.9,��,8.9
2024/03/11,17:40,3.7,��,8.4
2024/03/11,17:50,3.8,��,7.6
2024/03/11,18:00,3.7,��,8.8
2024/03/11,18:10,3.8,��쐼,7.2
2024/03/11,18:20,4.0,��쐼,7.8
2024/03/11,18:30,3.9,��쐼,7.6
2024/03/11,18:40,3.9,��쐼,6.6
2024/03/11,18:50,3.9,��쐼,5.9
2024/03/11,19:00,3.7,�쐼,6.0
2024/03/11,19:10,3.6,�쐼,6.2
2024/03/11,19:20,3.9,�쐼,4.9
2024/03/11,19:30,3.8,�쐼,4.6
2024/03/11,19:40,3.7,��쐼,4.4
2024/03/11,19:50,3.8,��쐼,4.2
2024/03/11,20:00,3.7,��쐼,3.4
2024/03/11,20:10,4.0,��쐼,2.8
2024/03/11,20:20,3.7,��쐼,2.3
2024/03/11,20:30,3.8,�쐼,1.9
2024/03/11,20:40,3.9,��,2.3
2024/03/11,20:50,4.0,��쓌,3.4
2024/03/11,21:00,3.9,��쐼,3.6
2024/03/11,21:10,3.7,��,3.5
2024/03/11,21:20,3.8,��,2.2
2024/03/11,21:30,3.8,��,2.3
2024/03/11,21:40,3.9,��,2.2
2024/03/11,21:50,3.9,��,2.2
2024/03/11,22:00,3.6,��,3.1
2024/03/11,22:10,3.9,��쐼,3.9
2024/03/11,22:20,3.6,�쐼,3.3
2024/03/11,22:30,3.8,��쐼,5.5
2024/03/11,22:40,3.8,��쐼,3.7
2024/03/11,22:50,3.8,��쐼,3.3
2024/03/11,23:00,3.9,��쐼,3.8
2024/03/11,23:10,3.9,��,4.7
2024/03/11,23:20,3.8,��쓌,5.4
2024/03/11,23:30,3.7,��,6.1
2024/03/11,23:40,3.9,��쐼,6.0
2024/03/11,23:50,3.8,��쐼,6.2
